Hourly Weather Abidos

Today, 27 November, Friday

Time Temperature Precipitation Wind Pressure Humidity
00:00 +25°C° 0 mm 1 mps 756 mmHg 92%
01:00 +25°C° 0 mm 1 mps 755 mmHg 93%
02:00 +25°C° 0 mm 1 mps 755 mmHg 93%
03:00 +25°C° 0 mm 1 mps 755 mmHg 93%
04:00 +25°C° 0 mm 1 mps 755 mmHg 93%
05:00 +25°C° 0 mm 1 mps 755 mmHg 94%
06:00 +26°C° 0 mm 1 mps 756 mmHg 90%
07:00 +27°C° 0 mm 2 mps 757 mmHg 86%
08:00 +28°C° 0 mm 2 mps 757 mmHg 81%
09:00 +29°C° 0 mm 2 mps 757 mmHg 74%
10:00 +31°C° 0 mm 3 mps 757 mmHg 67%
11:00 +33°C° 0 mm 3 mps 756 mmHg 61%
12:00 +34°C° 0 mm 3 mps 755 mmHg 58%
13:00 +35°C° 0 mm 3 mps 754 mmHg 56%
14:00 +35°C° 0 mm 2 mps 754 mmHg 54%
15:00 +34°C° 0 mm 2 mps 753 mmHg 57%
16:00 +34°C° 0 mm 2 mps 753 mmHg 60%
17:00 +32°C° 0 mm 1 mps 753 mmHg 62%
18:00 +31°C° 0 mm 1 mps 754 mmHg 66%
19:00 +30°C° 0 mm 1 mps 754 mmHg 71%
20:00 +29°C° 0 mm 1 mps 755 mmHg 75%
21:00 +28°C° 0.2 mm 1 mps 755 mmHg 77%
22:00 +28°C° 0.2 mm 1 mps 755 mmHg 80%
23:00 +27°C° 0.2 mm 1 mps 756 mmHg 83%

Tomorrow, 28 November, Saturday

Time Temperature Precipitation Wind Pressure Humidity
00:00 +27°C° 0.1 mm 1 mps 755 mmHg 85%
01:00 +26°C° 0.1 mm 1 mps 755 mmHg 87%
02:00 +26°C° 0.1 mm 1 mps 754 mmHg 88%
03:00 +26°C° 0 mm 1 mps 754 mmHg 89%
04:00 +26°C° 0 mm 1 mps 755 mmHg 90%
05:00 +26°C° 0 mm 1 mps 755 mmHg 90%
06:00 +27°C° 0 mm 2 mps 756 mmHg 83%
07:00 +29°C° 0 mm 2 mps 756 mmHg 77%
08:00 +30°C° 0 mm 2 mps 757 mmHg 70%
09:00 +32°C° 0 mm 2 mps 757 mmHg 64%
10:00 +34°C° 0 mm 3 mps 756 mmHg 58%
11:00 +36°C° 0 mm 3 mps 756 mmHg 52%
12:00 +36°C° 0 mm 3 mps 755 mmHg 50%
13:00 +37°C° 0 mm 3 mps 754 mmHg 48%
14:00 +37°C° 0 mm 3 mps 753 mmHg 46%
15:00 +36°C° 0 mm 3 mps 753 mmHg 49%
16:00 +35°C° 0 mm 2 mps 753 mmHg 52%
17:00 +34°C° 0 mm 2 mps 753 mmHg 56%
18:00 +32°C° 0.1 mm 2 mps 754 mmHg 61%
19:00 +31°C° 0.1 mm 2 mps 754 mmHg 66%
20:00 +29°C° 0.1 mm 2 mps 755 mmHg 71%
21:00 +29°C° 0.1 mm 1 mps 755 mmHg 75%
22:00 +28°C° 0.1 mm 1 mps 755 mmHg 79%
23:00 +27°C° 0.1 mm 1 mps 756 mmHg 82%

Day after tomorrow, 29 November, Sunday

Time Temperature Precipitation Wind Pressure Humidity
00:00 +27°C° 0 mm 1 mps 755 mmHg 83%
01:00 +27°C° 0 mm 1 mps 755 mmHg 84%
02:00 +27°C° 0 mm 1 mps 754 mmHg 84%
03:00 +26°C° 0 mm 1 mps 755 mmHg 86%
04:00 +26°C° 0 mm 1 mps 755 mmHg 87%
05:00 +26°C° 0 mm 1 mps 755 mmHg 88%
06:00 +27°C° 0 mm 1 mps 756 mmHg 81%
07:00 +29°C° 0 mm 1 mps 756 mmHg 74%
08:00 +30°C° 0 mm 2 mps 757 mmHg 67%
09:00 +32°C° 0 mm 2 mps 757 mmHg 60%
10:00 +35°C° 0 mm 2 mps 756 mmHg 54%
11:00 +37°C° 0 mm 2 mps 756 mmHg 47%
12:00 +37°C° 0 mm 2 mps 755 mmHg 46%
13:00 +37°C° 0 mm 2 mps 754 mmHg 45%
14:00 +37°C° 0 mm 2 mps 753 mmHg 44%
15:00 +36°C° 0.1 mm 2 mps 753 mmHg 47%
16:00 +35°C° 0.1 mm 2 mps 753 mmHg 51%
17:00 +34°C° 0.1 mm 2 mps 753 mmHg 54%
18:00 +31°C° 0.6 mm 2 mps 754 mmHg 64%
19:00 +29°C° 0.6 mm 2 mps 755 mmHg 74%
20:00 +27°C° 0.6 mm 2 mps 755 mmHg 84%
21:00 +27°C° 0.9 mm 2 mps 755 mmHg 87%
22:00 +27°C° 0.9 mm 2 mps 756 mmHg 90%
23:00 +26°C° 0.9 mm 1 mps 756 mmHg 92%

30 November, Monday

Time Temperature Precipitation Wind Pressure Humidity
00:00 +26°C° 0.1 mm 1 mps 756 mmHg 92%
01:00 +26°C° 0.1 mm 1 mps 755 mmHg 93%
02:00 +26°C° 0.1 mm 1 mps 755 mmHg 93%
03:00 +26°C° 0 mm 1 mps 755 mmHg 93%
04:00 +26°C° 0 mm 1 mps 755 mmHg 93%
05:00 +26°C° 0 mm 1 mps 755 mmHg 94%
06:00 +27°C° 0 mm 1 mps 756 mmHg 88%
07:00 +28°C° 0 mm 2 mps 757 mmHg 82%
08:00 +29°C° 0 mm 2 mps 757 mmHg 77%
09:00 +31°C° 0 mm 2 mps 757 mmHg 68%
10:00 +34°C° 0 mm 2 mps 756 mmHg 59%
11:00 +36°C° 0 mm 2 mps 756 mmHg 50%
12:00 +36°C° 0 mm 2 mps 755 mmHg 47%
13:00 +37°C° 0 mm 2 mps 754 mmHg 45%
14:00 +38°C° 0 mm 2 mps 753 mmHg 42%
15:00 +37°C° 0 mm 2 mps 753 mmHg 45%
16:00 +36°C° 0 mm 2 mps 753 mmHg 48%
17:00 +34°C° 0 mm 1 mps 753 mmHg 52%
18:00 +32°C° 0.1 mm 1 mps 753 mmHg 57%
19:00 +31°C° 0.1 mm 1 mps 754 mmHg 62%
20:00 +29°C° 0.1 mm 1 mps 754 mmHg 68%
21:00 +28°C° 0.2 mm 1 mps 754 mmHg 72%
22:00 +28°C° 0.2 mm 1 mps 755 mmHg 76%
23:00 +27°C° 0.2 mm 1 mps 755 mmHg 81%

1 December, Tuesday

Time Temperature Precipitation Wind Pressure Humidity
00:00 +27°C° 0.3 mm 1 mps 755 mmHg 84%
01:00 +26°C° 0.3 mm 1 mps 755 mmHg 87%
02:00 +24°C° 0.3 mm 0 mps 754 mmHg 90%
03:00 +24°C° 0.2 mm 0 mps 755 mmHg 91%
04:00 +24°C° 0.2 mm 0 mps 755 mmHg 92%
05:00 +24°C° 0.2 mm 0 mps 755 mmHg 93%
06:00 +25°C° 0 mm 0 mps 756 mmHg 86%
07:00 +26°C° 0 mm 0 mps 756 mmHg 80%
08:00 +28°C° 0 mm 0 mps 757 mmHg 73%
09:00 +32°C° 0 mm 1 mps 757 mmHg 64%
10:00 +34°C° 0 mm 1 mps 756 mmHg 55%
11:00 +36°C° 0 mm 1 mps 756 mmHg 46%
12:00 +36°C° 0 mm 1 mps 755 mmHg 45%
13:00 +36°C° 0 mm 1 mps 754 mmHg 43%
14:00 +37°C° 0 mm 2 mps 753 mmHg 42%
15:00 +35°C° 0 mm 1 mps 753 mmHg 45%
16:00 +34°C° 0 mm 1 mps 753 mmHg 47%
17:00 +33°C° 0 mm 1 mps 753 mmHg 50%
18:00 +32°C° 0.1 mm 1 mps 754 mmHg 56%
19:00 +30°C° 0.1 mm 1 mps 754 mmHg 62%
20:00 +29°C° 0.1 mm 1 mps 755 mmHg 69%
21:00 +28°C° 0.4 mm 1 mps 755 mmHg 74%
22:00 +27°C° 0.4 mm 1 mps 755 mmHg 80%
23:00 +26°C° 0.4 mm 1 mps 755 mmHg 86%

2 December, Wednesday

Time Temperature Precipitation Wind Pressure Humidity
00:00 +24°C° 0.4 mm 0 mps 755 mmHg 88%
01:00 +24°C° 0.4 mm 0 mps 755 mmHg 90%
02:00 +23°C° 0.4 mm 0 mps 754 mmHg 91%
03:00 +23°C° 0.1 mm 0 mps 755 mmHg 92%
04:00 +23°C° 0.1 mm 0 mps 755 mmHg 92%
05:00 +23°C° 0.1 mm 0 mps 755 mmHg 92%
06:00 +25°C° 0 mm 0 mps 756 mmHg 85%
07:00 +26°C° 0 mm 0 mps 756 mmHg 79%
08:00 +30°C° 0 mm 1 mps 757 mmHg 72%
09:00 +31°C° 0 mm 1 mps 757 mmHg 65%
10:00 +33°C° 0 mm 1 mps 756 mmHg 58%
11:00 +36°C° 0 mm 2 mps 756 mmHg 50%
12:00 +36°C° 0 mm 2 mps 755 mmHg 49%
13:00 +36°C° 0 mm 2 mps 755 mmHg 49%
14:00 +36°C° 0 mm 2 mps 754 mmHg 48%
15:00 +35°C° 0 mm 2 mps 754 mmHg 50%
16:00 +34°C° 0 mm 2 mps 754 mmHg 53%
17:00 +33°C° 0 mm 1 mps 754 mmHg 55%
18:00 +31°C° 0.1 mm 1 mps 754 mmHg 59%
19:00 +30°C° 0.1 mm 1 mps 755 mmHg 64%
20:00 +29°C° 0.1 mm 1 mps 755 mmHg 68%
21:00 +28°C° 0.1 mm 1 mps 755 mmHg 71%
22:00 +28°C° 0.1 mm 1 mps 755 mmHg 75%
23:00 +27°C° 0.1 mm 1 mps 756 mmHg 79%
Show more

We Need Your Consent

Meteoprog and our Service Providers may store and access personal data such as cookies, device identifiers or other similar technologies on your device and process such data to personalise content and ads, as well as provide social media features and to analyse the traffic.

  • Store and/or access information on your device

    Cookies, device identifiers or other information can be stored or accessed on your device for the purposes indicated above.

  • Personalised ads and content, ad and content measurement, audience insights, and products development

    Ads and content can be personalised based on a profile. More data can be added to better personalise ads and content. Ad and content performance can be measured. Insights about the audience who saw the ads and content can be derived. Such data can be used to develop or improve user’s experience, systems and software.

By clicking ‘I Agree’ you will allow the use of indicated cookies, device identifiers, web beacons or other similar technologies. Your settings can be changed in the browser on your device.

For certain purposes, legitimate interests may be relied on, rather than consent. You can read more about this in our Privacy and Cookie Policy.